Retour au catalogue

THOR ABLESTAR DEB

ActifLEO
NORAD 128·DEBRIS·🇺🇸 United States

Lancé Jun 29, 1961 depuis Cape Canaveral Space Force Station

Loading…

Prochains Passages (prochaines 24 heures)

TLE

FraisSource: Space-Track

Époque: Sep 14, 2026, 13:24 UTC

1   128U 61015N   26257.55884709  .00000055  00000-0  84449-4 0  9995
2   128  66.6760 316.4673 0100763 258.0536 100.9237 14.02053402327601

Suivez THOR ABLESTAR DEB en temps réel avec AllMySat

Download on the App Store